Other Public Products
Issued by NWS Charleston, SC

Current Version | Previous Version | Graphics & Text | Print | Product List | Glossary On
Versions: 1 2 3 4 5 6 7 8 9 10 11 12 13 14 15 16 17 18 19 20 21 22 23 24 25 26 27 28 29 30 31 32 33 34 35 36 37 38 39 40 41 42 43 44 45 46 47 48 49 50
615
FPUS82 KCHS 181027
OPUCHS

TEST...KCHS/KSAV Gateway Observations...TEST
National Weather Service Charleston SC
500 AM EST MON DEC 18 2017

NOTE: "fair" indicates few or no clouds below 12,000 feet with no
significant weather and/or obstructions to visibility.

SCZ050-WAZ558-NCZ071-TXZ119-213-PAZ071-DCZ001-FLZ074-172-MI076-
NYZ176-178-MAZ016-IL014-TNZ027-NJZ106-GAZ044-MD014-181100-

...Gateway Observations for Charleston International...

CITY           SKY/WX    TMP DP  RH WIND       PRES   REMARKS
Chas Airport   CLOUDY    61  57  87 SW6       30.17S
Seattle        CLOUDY    49  46  90 S16G24    29.97R
Charlotte      CLOUDY    48  40  73 SW3       30.15F
Dallas DFW     CLOUDY    50  48  93 CALM      30.13F FOG
Dallas Love    CLOUDY    49  47  93 NE5       30.14F FOG
Philladelphia  CLOUDY    39  34  82 CALM      30.14R
Wash National  MOCLDY    41  35  79 E3        30.12S
Baltimore      CLOUDY    38  35  89 CALM      30.11S
Miami          MOCLDY    72  70  93 E3        30.20R
Detroit        CLOUDY    38  34  85 S9        29.97F WCI  31
Newark         CLOUDY    34  31  88 N7        30.15S WCI  28
Laguardia      CLOUDY    36  29  75 NE7       30.15S WCI  30
J F K          CLOUDY    33  30  88 E9        30.15F WCI  25
Boston Logan   CLOUDY    23   6  48 N3        30.20F
Ft. Lauderdale PTCLDY    71  71 100 CALM      30.19S
Chicago O`Hare DRIZZLE   43  40  89 SW12      29.92S FOG
Chicago Midway DRIZZLE   43  42  97 SW9       29.93F
Houston Bush   CLOUDY    57  55  93 CALM      30.12S
Houston Hobby  CLOUDY    60  59  96 CALM      30.11S
Nashville      CLOUDY    47  46  97 S6        30.15R FOG
Atlanta        FOG       47  47 100 CALM      30.15F VSB 1/4

$$

GAZ044-118-TXZ119-213-NCZ071-DCZ001-MDZ014-506-PAZ021-071-NJZ106-
NYZ176-178-MAZ106-OHZ011-021-055-MIZ076-KYZ091-ILZ014-INZ047-
MNZ060-ONZ431-181100-

...Gateway Observations for Savannah International...

CITY           SKY/WX    TMP DP  RH WIND       PRES   REMARKS
Savannah Arpt  CLOUDY    57  54  89 CALM      30.17F
Atlanta        FOG       47  47 100 CALM      30.15F VSB 1/4
Charlotte      CLOUDY    48  40  73 SW3       30.15F
Dallas DFW     CLOUDY    50  48  93 CALM      30.13F FOG
Houston Bush   CLOUDY    57  55  93 CALM      30.12S
Wash National  MOCLDY    41  35  79 E3        30.12S
Wash Dulles    PTCLDY    35  33  92 CALM      30.11S
Baltimore      CLOUDY    38  35  89 CALM      30.11S
Philadelphia   CLOUDY    39  34  82 CALM      30.14R
Newark         CLOUDY    34  31  88 N7        30.15S WCI  28
Laguardia      CLOUDY    36  29  75 NE7       30.15S WCI  30
J F K          CLOUDY    33  30  88 E9        30.15F WCI  25
Boston         CLOUDY    23   6  48 N3        30.20F
Pittsburg      CLOUDY    38  32  79 CALM      30.05F
Akron          CLOUDY    36  30  79 S8        30.04S WCI  30
Cleveland      CLOUDY    39  33  79 SW9       30.04F WCI  33
Cincinnati     FOG       41  41 100 S6        30.07F VSB 1/8
Columbus       CLOUDY    39  38  97 S7        30.06F WCI  34
Detroit        CLOUDY    38  34  85 S9        29.97F WCI  31
Chicago O`Hare DRIZZLE   43  40  89 SW12      29.92S FOG
Minneapolis    CLOUDY    25  25 100 SE5       29.86F FOG     WCI  19
Indianapolis   DRIZZLE   42  41  96 SW9       30.04S FOG
Toronto Canada CLOUDY    23  18  80 VRB3      29.97S

$$




USA.gov is the U.S. government's official web portal to all federal, state and local government web resources and services.